Tracking 18796 objects as of 19-September-2017
HD Live streaming from Space Station
objects crossing your sky now

OPS 9328 (IDSCS 15)

Track OPS 9328 (IDSCS 15) now!
OPS 9328 (IDSCS 15) is classified as:


NORAD ID: 2655
Int'l Code: 1967-003H
Perigee: 33,681.5 km
Apogee: 34,217.6 km
Inclination: 2.2 °
Period: 1,342.9 minutes
Semi major axis: 40320 km
RCS: 0.3981 m2 (medium)
Launch date: January 18, 1967
Source: United States (US)
Launch site: AIR FORCE EASTERN TEST RANGE (AFETR)
Uplink (MHz):
Downlink (MHz):
Beacon (MHz):
Mode:
Call sign:
Status:

aabbcc
Your satellite tracking list
Your tracking list is empty





NASA's NSSDC Master Catalog

Two Line Element Set (TLE):
1  2655U 67003H   17262.29837219 -.00000074 +00000-0 +00000-0 0  9995
2  2655 002.2117 054.2191 0066480 328.8481 243.4744 01.07229127104962
Source of the keplerian elements: AFSPC